Fairbanks, AK

12:00 PM AKST on November 11, 2019 (GMT -0900)
Fairbanks International

Weather History for PAFA - January, 1975

Change the Weather History Date:

Monday, January 20, 1975

  Actual Average Record
Temperature  
Mean Temperature 11 °F -8 °F  
Max Temperature 21 °F 0 °F 45 °F (1961)
Min Temperature 1 °F -16 °F -65 °F (1906)
Degree Days  
Heating Degree Days 54 74  
Month to date heating degree days 1464  
Since 1 July heating degree days 7736  
Cooling Degree Days 0 0  
Month to date cooling degree days 0  
Year to date cooling degree days 0  
Moisture  
Dew Point 2 °F    
Average Humidity 72    
Maximum Humidity 85    
Minimum Humidity 61    
Precipitation  
Precipitation 0.01 in 0.01 in 1.33 in (1937)
Month to date precipitation 0.39  
Year to date precipitation 0.39  
Snow  
Snow 0.00 in 0.30 in 10.50 in (1937)
Month to date snowfall 7.0  
Since 1 July snowfall 44.9  
Snow Depth -    
Sea Level Pressure  
Sea Level Pressure 29.82 in    
Wind  
Wind Speed 3 mph (NNW)    
Max Wind Speed 13 mph    
Max Gust Speed -    
Visibility 12 miles    
Events Snow    
T = Trace of Precipitation, MM = Missing Value Source: NWS Daily Summary

Daily Weather History Graph

Daily Weather History Graph

Search for Another Location

Airport or City:

Astronomy

Jan. 20, 1975 Rise Set
Actual Time 9:14 AM AHST 2:51 PM AHST
Civil Twilight 8:07 AM AHST 3:58 PM AHST
Nautical Twilight 7:02 AM AHST 5:03 PM AHST
Astronomical Twilight 6:04 AM AHST 6:01 PM AHST
Moon 9:30 AM AHST (1/20) 1:40 AM AHST (1/20)
Length of Visible Light 7h 51m
Length of Day
5h 37m
First Quarter, 53% of the Moon is Illuminated
Jan 20
First Quarter
Jan 27
Full
Feb 2
Last Quarter
Feb 10
New
Feb 18
First Quarter

Hourly Weather History & Observations

Time (AHST) Temp. Windchill Dew Point Humidity Pressure Visibility Wind Dir Wind Speed Gust Speed Precip Events Conditions
12:00 AM 3.9 °F - -5.1 °F 66% 29.66 in 15.0 mi Calm Calm - N/A   Unknown
1:00 AM 5.0 °F -2.1 °F -5.1 °F 63% 29.69 in 15.0 mi WNW 3.5 mph - N/A   Mostly Cloudy
2:00 AM 3.0 °F - -6.0 °F 66% 29.73 in 15.0 mi Calm Calm - N/A   Scattered Clouds
3:00 AM 1.9 °F - -8.0 °F 63% 29.76 in 15.0 mi Calm Calm - N/A   Mostly Cloudy
4:00 AM 3.9 °F - -4.0 °F 70% 29.79 in 7.0 mi Calm Calm - N/A Snow Light Snow
5:00 AM 5.0 °F - -2.9 °F 70% 29.82 in 7.0 mi Calm Calm - N/A Snow Light Snow Showers
6:00 AM 6.1 °F - -0.9 °F 73% 29.85 in 5.0 mi Calm Calm - N/A Snow Light Snow
7:00 AM 7.0 °F 0.1 °F -2.0 °F 67% 29.87 in 10.0 mi NNW 3.5 mph - N/A Snow Light Snow
7:49 AM - - - N/A% 29.84 in 2.0 mi North 3.5 mph - N/A   Unknown
8:00 AM 8.1 °F 1.4 °F -0.0 °F 70% 29.88 in 2.0 mi North 3.5 mph - 0.01 in Snow Light Snow
8:01 AM - - - N/A% 29.84 in 5.0 mi Calm Calm - N/A   Unknown
9:00 AM 6.1 °F -0.9 °F -2.0 °F 69% 29.90 in 40.0 mi NNW 3.5 mph - N/A   Mostly Cloudy
10:00 AM 6.1 °F - -2.0 °F 69% 29.91 in 60.0 mi Calm Calm - N/A   Mostly Cloudy
11:00 AM 9.0 °F 0.6 °F -2.0 °F 61% 29.92 in 60.0 mi NNW 4.6 mph - N/A   Overcast
12:00 PM 14.0 °F 6.5 °F 8.1 °F 77% 29.91 in 60.0 mi North 4.6 mph - N/A   Overcast
1:00 PM 17.1 °F 6.6 °F 12.0 °F 81% 29.91 in 15.0 mi NNW 8.1 mph - N/A   Overcast
2:00 PM 19.0 °F 7.5 °F 15.1 °F 85% 29.90 in 15.0 mi NNW 10.4 mph - N/A   Overcast
3:00 PM 19.9 °F 8.6 °F 16.0 °F 85% 29.88 in 15.0 mi NNW 10.4 mph - N/A   Overcast
4:00 PM 21.0 °F 9.9 °F 16.0 °F 81% 29.86 in 15.0 mi NNW 10.4 mph - N/A   Overcast
4:30 PM - - - N/A% 29.80 in 15.0 mi North 10.4 mph - N/A   Scattered Clouds
5:00 PM 19.0 °F 6.1 °F 15.1 °F 85% 29.84 in 15.0 mi NNW 12.7 mph - N/A   Scattered Clouds
6:00 PM 15.1 °F 3.3 °F 9.0 °F 77% 29.82 in 15.0 mi North 9.2 mph - N/A   Scattered Clouds
7:00 PM 15.1 °F 3.3 °F 10.0 °F 80% 29.79 in 15.0 mi North 9.2 mph - N/A   Scattered Clouds
8:00 PM 10.9 °F 1.4 °F 6.1 °F 81% 29.77 in 15.0 mi North 5.8 mph - N/A   Scattered Clouds
9:00 PM 7.0 °F -5.7 °F -4.0 °F 61% 29.75 in 15.0 mi NE 8.1 mph - N/A   Scattered Clouds
10:00 PM 9.0 °F -3.2 °F -0.9 °F 64% 29.73 in 15.0 mi North 8.1 mph - N/A   Partly Cloudy
11:00 PM 3.0 °F -6.4 °F -7.1 °F 63% 29.72 in 15.0 mi North 4.6 mph - N/A   Clear